| time (UTC) | temp F | wind direction | speed MPH | gust MPH | rain 1hr in | rain 24hr in | rain mn in | humidity % | barometer mb |
| 20260510204549 | 88 | 87 | 3.0 | 0.0 | 0.00 | 0.00 | 0.00 | 59 | 1012.6 |
| 20260510204022 | 88 | 128 | 3.0 | 0.0 | 0.00 | 0.00 | 0.00 | 62 | 1012.8 |
| 20260510203602 | 88 | 138 | 2.0 | 0.0 | 0.00 | 0.00 | 0.00 | 61 | 1012.9 |
| 20260510203048 | 88 | 67 | 3.0 | 0.0 | 0.00 | 0.00 | 0.00 | 62 | 1012.9 |
| 20260510202518 | 88 | 140 | 3.0 | 0.0 | 0.00 | 0.00 | 0.00 | 58 | 1012.9 |
| 20260510202055 | 88 | 84 | 3.0 | 0.0 | 0.00 | 0.00 | 0.00 | 63 | 1012.9 |
| 20260510201618 | 88 | 144 | 3.0 | 0.0 | 0.00 | 0.00 | 0.00 | 59 | 1012.9 |
| 20260510201028 | 88 | 138 | 3.0 | 0.0 | 0.00 | 0.00 | 0.00 | 57 | 1012.8 |
| 20260510200607 | 88 | 78 | 3.0 | 0.0 | 0.00 | 0.00 | 0.00 | 61 | 1012.8 |
| 20260510200005 | 87 | 76 | 3.0 | 0.0 | 0.00 | 0.00 | 0.00 | 61 | 1012.7 |
| 20260510195543 | 87 | 146 | 3.0 | 0.0 | 0.00 | 0.00 | 0.00 | 60 | 1012.7 |
| 20260510195016 | 87 | 130 | 3.0 | 0.0 | 0.00 | 0.00 | 0.00 | 60 | 1012.7 |
| 20260510194526 | 87 | 151 | 3.0 | 0.0 | 0.00 | 0.00 | 0.00 | 63 | 1012.8 |
| 20260510194057 | 87 | 134 | 3.0 | 0.0 | 0.00 | 0.00 | 0.00 | 62 | 1012.8 |
| 20260510193527 | 86 | 136 | 4.0 | 0.0 | 0.00 | 0.00 | 0.00 | 64 | 1012.8 |
| 20260510193032 | 86 | 140 | 4.0 | 0.0 | 0.00 | 0.00 | 0.00 | 63 | 1012.8 |
| 20260510192509 | 86 | 92 | 4.0 | 0.0 | 0.00 | 0.00 | 0.00 | 63 | 1012.9 |
| 20260510192048 | 86 | 122 | 4.0 | 0.0 | 0.00 | 0.00 | 0.00 | 63 | 1012.9 |
| 20260510191609 | 86 | 209 | 4.0 | 0.0 | 0.00 | 0.00 | 0.00 | 64 | 1012.9 |
| 20260510191028 | 86 | 129 | 5.0 | 0.0 | 0.00 | 0.00 | 0.00 | 64 | 1012.8 |
| 20260510190607 | 85 | 148 | 5.0 | 0.0 | 0.00 | 0.00 | 0.00 | 62 | 1012.8 |
| 20260510190106 | 85 | 131 | 5.0 | 0.0 | 0.00 | 0.00 | 0.00 | 62 | 1012.9 |
| 20260510185524 | 85 | 126 | 4.0 | 0.0 | 0.00 | 0.00 | 0.00 | 66 | 1012.9 |
| 20260510185102 | 85 | 121 | 4.0 | 0.0 | 0.00 | 0.00 | 0.00 | 68 | 1013.0 |
| 20260510184503 | 85 | 139 | 5.0 | 0.0 | 0.00 | 0.00 | 0.00 | 67 | 1012.9 |
| 20260510184041 | 85 | 109 | 5.0 | 0.0 | 0.00 | 0.00 | 0.00 | 66 | 1013.0 |
| 20260510183516 | 85 | 120 | 4.0 | 0.0 | 0.00 | 0.00 | 0.00 | 65 | 1013.0 |
| 20260510183017 | 84 | 132 | 5.0 | 0.0 | 0.00 | 0.00 | 0.00 | 67 | 1013.1 |
| 20260510182555 | 84 | 141 | 6.0 | 0.0 | 0.00 | 0.00 | 0.00 | 67 | 1013.1 |
| 20260510182029 | 84 | 153 | 5.0 | 0.0 | 0.00 | 0.00 | 0.00 | 67 | 1013.1 |
| 20260510181535 | 84 | 154 | 5.0 | 0.0 | 0.00 | 0.00 | 0.00 | 69 | 1013.0 |
| 20260510181007 | 84 | 77 | 6.0 | 0.0 | 0.00 | 0.00 | 0.00 | 67 | 1013.0 |
| 20260510180546 | 84 | 138 | 5.0 | 0.0 | 0.00 | 0.00 | 0.00 | 69 | 1013.1 |
| 20260510180034 | 84 | 137 | 4.0 | 0.0 | 0.00 | 0.00 | 0.00 | 68 | 1013.2 |
| 20260510175505 | 84 | 157 | 5.0 | 0.0 | 0.00 | 0.00 | 0.00 | 70 | 1013.3 |
| 20260510175044 | 83 | 134 | 6.0 | 0.0 | 0.00 | 0.00 | 0.00 | 69 | 1013.3 |
| 20260510174557 | 83 | 148 | 5.0 | 0.0 | 0.00 | 0.00 | 0.00 | 69 | 1013.3 |
| 20260510174024 | 83 | 77 | 6.0 | 0.0 | 0.00 | 0.00 | 0.00 | 70 | 1013.3 |
| 20260510173603 | 83 | 160 | 6.0 | 0.0 | 0.00 | 0.00 | 0.00 | 69 | 1013.4 |
| 20260510173049 | 83 | 153 | 7.0 | 0.0 | 0.00 | 0.00 | 0.00 | 69 | 1013.4 |
| 20260510172527 | 82 | 136 | 7.0 | 0.0 | 0.00 | 0.00 | 0.00 | 71 | 1013.6 |
| 20260510172106 | 82 | 126 | 7.0 | 0.0 | 0.00 | 0.00 | 0.00 | 71 | 1013.6 |
| 20260510171551 | 82 | 128 | 8.0 | 0.0 | 0.00 | 0.00 | 0.00 | 73 | 1013.6 |
| 20260510171022 | 81 | 159 | 7.0 | 0.0 | 0.00 | 0.00 | 0.00 | 70 | 1013.6 |
| 20260510170601 | 82 | 144 | 6.0 | 0.0 | 0.00 | 0.00 | 0.00 | 73 | 1013.6 |
| 20260510170046 | 81 | 132 | 6.0 | 0.0 | 0.00 | 0.00 | 0.00 | 72 | 1013.7 |
| 20260510165522 | 81 | 128 | 5.0 | 0.0 | 0.00 | 0.00 | 0.00 | 77 | 1013.9 |
| 20260510165059 | 81 | 113 | 4.0 | 0.0 | 0.00 | 0.00 | 0.00 | 75 | 1013.9 |
| 20260510164502 | 81 | 132 | 4.0 | 0.0 | 0.00 | 0.00 | 0.00 | 75 | 1014.0 |
| 20260510164041 | 81 | 119 | 4.0 | 0.0 | 0.00 | 0.00 | 0.00 | 76 | 1014.1 |
| 20260510163510 | 81 | 86 | 4.0 | 0.0 | 0.00 | 0.00 | 0.00 | 76 | 1014.2 |
| 20260510163107 | 80 | 76 | 4.0 | 0.0 | 0.00 | 0.00 | 0.00 | 77 | 1014.2 |
| 20260510162536 | 80 | 144 | 4.0 | 0.0 | 0.00 | 0.00 | 0.00 | 77 | 1014.2 |
| 20260510162006 | 80 | 134 | 4.0 | 0.0 | 0.00 | 0.00 | 0.00 | 80 | 1014.1 |
| 20260510161609 | 79 | 135 | 4.0 | 0.0 | 0.00 | 0.00 | 0.00 | 78 | 1014.1 |
| 20260510161038 | 79 | 150 | 4.0 | 0.0 | 0.00 | 0.00 | 0.00 | 78 | 1014.2 |
| 20260510160510 | 79 | 132 | 4.0 | 0.0 | 0.00 | 0.00 | 0.00 | 78 | 1014.2 |
| 20260510160151 | 79 | 138 | 4.0 | 0.0 | 0.00 | 0.00 | 0.00 | 78 | 1014.3 |
| 20260510155533 | 79 | 114 | 3.0 | 0.0 | 0.00 | 0.00 | 0.00 | 78 | 1014.3 |
| 20260510155009 | 79 | 162 | 3.0 | 0.0 | 0.00 | 0.00 | 0.00 | 81 | 1014.2 |
| 20260510154614 | 79 | 90 | 3.0 | 0.0 | 0.00 | 0.00 | 0.00 | 80 | 1014.2 |
| 20260510154036 | 78 | 100 | 3.0 | 0.0 | 0.00 | 0.00 | 0.00 | 80 | 1014.2 |
| 20260510153510 | 78 | 98 | 4.0 | 0.0 | 0.00 | 0.00 | 0.00 | 81 | 1014.2 |
| 20260510153102 | 78 | 134 | 4.0 | 0.0 | 0.00 | 0.00 | 0.00 | 81 | 1014.1 |
| 20260510152536 | 78 | 145 | 3.0 | 0.0 | 0.00 | 0.00 | 0.00 | 79 | 1014.0 |
| 20260510152013 | 78 | 76 | 3.0 | 0.0 | 0.00 | 0.00 | 0.00 | 81 | 1014.1 |
| 20260510151618 | 78 | 76 | 3.0 | 0.0 | 0.00 | 0.00 | 0.00 | 81 | 1014.1 |
| 20260510151041 | 78 | 140 | 3.0 | 0.0 | 0.00 | 0.00 | 0.00 | 81 | 1014.1 |
| 20260510150514 | 77 | 146 | 3.0 | 0.0 | 0.00 | 0.00 | 0.00 | 81 | 1014.1 |
| 20260510150020 | 77 | 82 | 3.0 | 0.0 | 0.00 | 0.00 | 0.00 | 81 | 1014.1 |
| 20260510145603 | 77 | 140 | 3.0 | 0.0 | 0.00 | 0.00 | 0.00 | 80 | 1014.1 |
| 20260510145034 | 78 | 148 | 3.0 | 0.0 | 0.00 | 0.00 | 0.00 | 80 | 1014.0 |
| 20260510144540 | 77 | 133 | 2.0 | 0.0 | 0.00 | 0.00 | 0.00 | 81 | 1014.0 |
| 20260510144016 | 77 | 74 | 3.0 | 0.0 | 0.00 | 0.00 | 0.00 | 81 | 1013.9 |
| 20260510143549 | 77 | 109 | 3.0 | 0.0 | 0.00 | 0.00 | 0.00 | 80 | 1013.9 |
| 20260510143055 | 77 | 134 | 2.0 | 0.0 | 0.00 | 0.00 | 0.00 | 80 | 1013.9 |
| 20260510142530 | 76 | 88 | 1.0 | 0.0 | 0.00 | 0.00 | 0.00 | 81 | 1013.9 |
| 20260510142107 | 76 | 87 | 2.0 | 0.0 | 0.00 | 0.00 | 0.00 | 82 | 1013.9 |
| 20260510141553 | 76 | 120 | 2.0 | 0.0 | 0.00 | 0.00 | 0.00 | 82 | 1013.8 |
| 20260510141022 | 75 | 141 | 2.0 | 0.0 | 0.00 | 0.00 | 0.00 | 82 | 1013.7 |
| 20260510140602 | 75 | 66 | 2.0 | 0.0 | 0.00 | 0.00 | 0.00 | 84 | 1013.7 |
| 20260510140001 | 74 | 66 | 2.0 | 0.0 | 0.00 | 0.00 | 0.00 | 85 | 1013.7 |
| 20260510135540 | 74 | 138 | 2.0 | 0.0 | 0.00 | 0.00 | 0.00 | 84 | 1013.6 |
| 20260510135016 | 74 | 134 | 3.0 | 0.0 | 0.00 | 0.00 | 0.00 | 84 | 1013.4 |
| 20260510134522 | 73 | 136 | 4.0 | 0.0 | 0.00 | 0.00 | 0.00 | 85 | 1013.4 |
| 20260510134053 | 73 | 142 | 4.0 | 0.0 | 0.00 | 0.00 | 0.00 | 85 | 1013.4 |
| 20260510133527 | 73 | 147 | 4.0 | 0.0 | 0.00 | 0.00 | 0.00 | 87 | 1013.2 |
| 20260510133030 | 72 | 144 | 4.0 | 0.0 | 0.00 | 0.00 | 0.00 | 87 | 1013.1 |
| 20260510132506 | 72 | 146 | 4.0 | 0.0 | 0.00 | 0.00 | 0.00 | 89 | 1013.1 |
| 20260510132043 | 71 | 136 | 4.0 | 0.0 | 0.00 | 0.00 | 0.00 | 89 | 1013.0 |
| 20260510131546 | 71 | 145 | 3.0 | 0.0 | 0.00 | 0.00 | 0.00 | 90 | 1012.9 |
| 20260510131019 | 70 | 159 | 3.0 | 0.0 | 0.00 | 0.00 | 0.00 | 91 | 1012.7 |
| 20260510130555 | 70 | 190 | 3.0 | 0.0 | 0.00 | 0.00 | 0.00 | 92 | 1012.7 |
| 20260510130043 | 69 | 198 | 2.0 | 0.0 | 0.00 | 0.00 | 0.00 | 92 | 1012.6 |
| 20260510125515 | 69 | 198 | 1.0 | 0.0 | 0.00 | 0.00 | 0.00 | 92 | 1012.5 |
| 20260510125050 | 68 | 200 | 0.0 | 0.0 | 0.00 | 0.00 | 0.00 | 92 | 1012.4 |
| 20260510124604 | 68 | 200 | 1.0 | 0.0 | 0.00 | 0.00 | 0.00 | 92 | 1012.4 |
| 20260510124031 | 68 | 200 | 1.0 | 0.0 | 0.00 | 0.00 | 0.00 | 92 | 1012.2 |
| 20260510123502 | 67 | 200 | 0.0 | 0.0 | 0.00 | 0.00 | 0.00 | 92 | 1012.2 |
| 20260510123002 | 67 | 200 | 0.0 | 0.0 | 0.00 | 0.00 | 0.00 | 92 | 1012.2 |
| 20260510122541 | 66 | 200 | 0.0 | 0.0 | 0.00 | 0.00 | 0.00 | 92 | 1012.1 |
| 20260510122016 | 66 | 200 | 0.0 | 0.0 | 0.00 | 0.00 | 0.00 | 92 | 1012.0 |
| 20260510121522 | 66 | 200 | 0.0 | 0.0 | 0.00 | 0.00 | 0.00 | 92 | 1011.8 |
| 20260510121100 | 66 | 200 | 0.0 | 0.0 | 0.00 | 0.00 | 0.00 | 92 | 1011.8 |
| 20260510120529 | 66 | 200 | 0.0 | 0.0 | 0.00 | 0.00 | 0.00 | 92 | 1011.7 |
| 20260510120033 | 66 | 200 | 0.0 | 0.0 | 0.00 | 0.00 | 0.00 | 92 | 1011.5 |
| 20260510115508 | 66 | 200 | 0.0 | 0.0 | 0.00 | 0.00 | 0.00 | 91 | 1011.4 |
| 20260510115042 | 67 | 200 | 0.0 | 0.0 | 0.00 | 0.00 | 0.00 | 92 | 1011.4 |
| 20260510114545 | 67 | 200 | 1.0 | 0.0 | 0.00 | 0.00 | 0.00 | 92 | 1011.1 |
| 20260510114014 | 67 | 200 | 1.0 | 0.0 | 0.00 | 0.00 | 0.00 | 92 | 1011.0 |
| 20260510113553 | 66 | 200 | 0.0 | 0.0 | 0.00 | 0.00 | 0.00 | 92 | 1011.0 |
| 20260510113113 | 66 | 200 | 0.0 | 0.0 | 0.00 | 0.00 | 0.00 | 91 | 1011.0 |
| 20260510112535 | 66 | 200 | 0.0 | 0.0 | 0.00 | 0.00 | 0.00 | 91 | 1011.0 |
| 20260510112005 | 66 | 200 | 0.0 | 0.0 | 0.00 | 0.00 | 0.00 | 91 | 1011.1 |
| 20260510111617 | 66 | 200 | 0.0 | 0.0 | 0.00 | 0.00 | 0.00 | 91 | 1011.1 |
| 20260510111029 | 66 | 200 | 0.0 | 0.0 | 0.00 | 0.00 | 0.00 | 90 | 1011.0 |
| 20260510110503 | 67 | 200 | 0.0 | 0.0 | 0.00 | 0.00 | 0.00 | 90 | 1011.1 |
| 20260510110050 | 67 | 200 | 0.0 | 0.0 | 0.00 | 0.00 | 0.00 | 90 | 1011.1 |
| 20260510105513 | 67 | 200 | 0.0 | 0.0 | 0.00 | 0.00 | 0.00 | 90 | 1011.0 |
| 20260510105050 | 67 | 200 | 0.0 | 0.0 | 0.00 | 0.00 | 0.00 | 90 | 1011.0 |
| 20260510104553 | 67 | 200 | 0.0 | 0.0 | 0.00 | 0.00 | 0.00 | 89 | 1011.0 |
| 20260510104028 | 68 | 200 | 0.0 | 0.0 | 0.00 | 0.00 | 0.00 | 89 | 1011.0 |
| 20260510103608 | 68 | 200 | 0.0 | 0.0 | 0.00 | 0.00 | 0.00 | 89 | 1010.9 |
| 20260510103002 | 68 | 200 | 0.0 | 0.0 | 0.00 | 0.00 | 0.00 | 89 | 1010.9 |
| 20260510102537 | 69 | 200 | 0.0 | 0.0 | 0.00 | 0.00 | 0.00 | 89 | 1010.9 |
| 20260510102010 | 69 | 200 | 0.0 | 0.0 | 0.00 | 0.00 | 0.00 | 88 | 1010.8 |
| 20260510101600 | 69 | 200 | 0.0 | 0.0 | 0.00 | 0.00 | 0.00 | 88 | 1010.8 |
| 20260510101033 | 69 | 200 | 1.0 | 0.0 | 0.00 | 0.00 | 0.00 | 88 | 1010.6 |
| 20260510100513 | 69 | 200 | 1.0 | 0.0 | 0.00 | 0.00 | 0.00 | 88 | 1010.6 |
| 20260510100014 | 69 | 200 | 0.0 | 0.0 | 0.00 | 0.00 | 0.00 | 88 | 1010.6 |
| 20260510095554 | 70 | 200 | 0.0 | 0.0 | 0.00 | 0.00 | 0.00 | 87 | 1010.6 |
| 20260510095022 | 70 | 200 | 1.0 | 0.0 | 0.00 | 0.00 | 0.00 | 87 | 1010.5 |
| 20260510094526 | 70 | 200 | 2.0 | 0.0 | 0.00 | 0.00 | 0.00 | 87 | 1010.4 |
| 20260510094105 | 70 | 201 | 2.0 | 0.0 | 0.00 | 0.00 | 0.00 | 87 | 1010.3 |
| 20260510093538 | 70 | 161 | 2.0 | 0.0 | 0.00 | 0.00 | 0.00 | 87 | 1010.1 |
| 20260510093059 | 70 | 161 | 2.0 | 0.0 | 0.00 | 0.00 | 0.00 | 87 | 1010.1 |
| 20260510092518 | 70 | 161 | 3.0 | 0.0 | 0.00 | 0.00 | 0.00 | 86 | 1010.1 |
| 20260510092054 | 70 | 139 | 3.0 | 0.0 | 0.00 | 0.00 | 0.00 | 86 | 1010.1 |
| 20260510091556 | 70 | 138 | 2.0 | 0.0 | 0.00 | 0.00 | 0.00 | 86 | 1010.1 |
| 20260510091033 | 71 | 148 | 2.0 | 0.0 | 0.00 | 0.00 | 0.00 | 86 | 1010.1 |
| 20260510090505 | 71 | 148 | 3.0 | 0.0 | 0.00 | 0.00 | 0.00 | 85 | 1010.2 |
| 20260510090006 | 71 | 148 | 3.0 | 0.0 | 0.00 | 0.00 | 0.00 | 85 | 1010.2 |
| 20260510085544 | 71 | 142 | 2.0 | 0.0 | 0.00 | 0.00 | 0.00 | 85 | 1010.2 |
| 20260510085022 | 71 | 144 | 2.0 | 0.0 | 0.00 | 0.00 | 0.00 | 85 | 1010.2 |
| 20260510084529 | 71 | 142 | 2.0 | 0.0 | 0.00 | 0.00 | 0.00 | 85 | 1010.1 |
| 20260510084107 | 71 | 170 | 3.0 | 0.0 | 0.00 | 0.00 | 0.00 | 85 | 1010.1 |
| 20260510083539 | 71 | 178 | 3.0 | 0.0 | 0.00 | 0.00 | 0.00 | 84 | 1010.3 |
| 20260510083038 | 71 | 144 | 2.0 | 0.0 | 0.00 | 0.00 | 0.00 | 84 | 1010.2 |
| 20260510082513 | 72 | 147 | 3.0 | 0.0 | 0.00 | 0.00 | 0.00 | 84 | 1010.3 |
| 20260510082047 | 72 | 147 | 3.0 | 0.0 | 0.00 | 0.00 | 0.00 | 84 | 1010.4 |
| 20260510081535 | 72 | 146 | 3.0 | 0.0 | 0.00 | 0.00 | 0.00 | 83 | 1010.6 |
| 20260510081008 | 72 | 146 | 3.0 | 0.0 | 0.00 | 0.00 | 0.00 | 83 | 1010.6 |
| 20260510080542 | 72 | 151 | 3.0 | 0.0 | 0.00 | 0.00 | 0.00 | 83 | 1010.6 |
| 20260510080044 | 72 | 155 | 3.0 | 0.0 | 0.00 | 0.00 | 0.00 | 82 | 1010.7 |
| 20260510075504 | 72 | 147 | 2.0 | 0.0 | 0.00 | 0.00 | 0.00 | 82 | 1010.6 |
| 20260510075041 | 73 | 147 | 3.0 | 0.0 | 0.00 | 0.00 | 0.00 | 82 | 1010.6 |
| 20260510074544 | 73 | 150 | 2.0 | 0.0 | 0.00 | 0.00 | 0.00 | 81 | 1010.6 |
| 20260510074022 | 73 | 155 | 2.0 | 0.0 | 0.00 | 0.00 | 0.00 | 81 | 1010.7 |
| 20260510073558 | 73 | 155 | 2.0 | 0.0 | 0.00 | 0.00 | 0.00 | 81 | 1010.7 |
| 20260510073102 | 73 | 155 | 2.0 | 0.0 | 0.00 | 0.00 | 0.00 | 81 | 1010.8 |
| 20260510072538 | 73 | 156 | 3.0 | 0.0 | 0.00 | 0.00 | 0.00 | 81 | 1010.8 |
| 20260510072011 | 73 | 140 | 3.0 | 0.0 | 0.00 | 0.00 | 0.00 | 81 | 1010.8 |
| 20260510071521 | 73 | 160 | 3.0 | 0.0 | 0.00 | 0.00 | 0.00 | 81 | 1010.8 |
| 20260510071058 | 73 | 153 | 3.0 | 0.0 | 0.00 | 0.00 | 0.00 | 81 | 1010.9 |
| 20260510070533 | 73 | 150 | 3.0 | 0.0 | 0.00 | 0.00 | 0.00 | 80 | 1010.7 |
| 20260510070042 | 73 | 146 | 3.0 | 0.0 | 0.00 | 0.00 | 0.00 | 80 | 1010.7 |
| 20260510065522 | 73 | 144 | 1.0 | 0.0 | 0.00 | 0.00 | 0.00 | 79 | 1010.7 |
| 20260510065058 | 73 | 144 | 1.0 | 0.0 | 0.00 | 0.00 | 0.00 | 79 | 1010.6 |
| 20260510064608 | 74 | 144 | 2.0 | 0.0 | 0.00 | 0.00 | 0.00 | 79 | 1010.6 |
| 20260510064030 | 74 | 144 | 3.0 | 0.0 | 0.00 | 0.00 | 0.00 | 79 | 1010.5 |
| 20260510063505 | 74 | 133 | 2.0 | 0.0 | 0.00 | 0.00 | 0.00 | 78 | 1010.6 |
| 20260510063012 | 74 | 133 | 2.0 | 0.0 | 0.00 | 0.00 | 0.00 | 78 | 1010.6 |
| 20260510062551 | 74 | 133 | 2.0 | 0.0 | 0.00 | 0.00 | 0.00 | 78 | 1010.6 |
| 20260510062020 | 74 | 133 | 3.0 | 0.0 | 0.00 | 0.00 | 0.00 | 78 | 1010.6 |
| 20260510061524 | 73 | 132 | 2.0 | 0.0 | 0.00 | 0.00 | 0.00 | 79 | 1010.6 |
| 20260510061103 | 73 | 132 | 2.0 | 0.0 | 0.00 | 0.00 | 0.00 | 80 | 1010.6 |
| 20260510060539 | 73 | 132 | 1.0 | 0.0 | 0.00 | 0.00 | 0.00 | 80 | 1010.6 |
| 20260510060043 | 74 | 132 | 1.0 | 0.0 | 0.00 | 0.00 | 0.00 | 81 | 1010.6 |
| 20260510055518 | 74 | 132 | 2.0 | 0.0 | 0.00 | 0.00 | 0.00 | 82 | 1010.5 |
| 20260510055054 | 73 | 132 | 2.0 | 0.0 | 0.00 | 0.00 | 0.00 | 82 | 1010.5 |
| 20260510054556 | 73 | 132 | 2.0 | 0.0 | 0.00 | 0.00 | 0.00 | 84 | 1010.5 |
| 20260510054032 | 73 | 132 | 2.0 | 0.0 | 0.00 | 0.00 | 0.00 | 86 | 1010.5 |
| 20260510053502 | 73 | 132 | 1.0 | 0.0 | 0.00 | 0.00 | 0.00 | 87 | 1010.5 |
| 20260510053007 | 73 | 132 | 1.0 | 0.0 | 0.00 | 0.00 | 0.00 | 88 | 1010.5 |
| 20260510052547 | 72 | 132 | 1.0 | 0.0 | 0.00 | 0.00 | 0.00 | 89 | 1010.5 |
| 20260510052021 | 72 | 132 | 1.0 | 0.0 | 0.00 | 0.00 | 0.00 | 89 | 1010.4 |
| 20260510051524 | 72 | 132 | 1.0 | 0.0 | 0.00 | 0.00 | 0.00 | 89 | 1010.5 |
| 20260510051100 | 72 | 132 | 0.0 | 0.0 | 0.00 | 0.00 | 0.00 | 90 | 1010.5 |
| 20260510050533 | 72 | 132 | 0.0 | 0.0 | 0.00 | 0.00 | 0.00 | 89 | 1010.5 |
| 20260510050038 | 72 | 132 | 0.0 | 0.0 | 0.00 | 0.00 | 0.00 | 89 | 1010.5 |
| 20260510045510 | 72 | 132 | 0.0 | 0.0 | 0.00 | 0.00 | 0.00 | 89 | 1010.4 |
| 20260510045049 | 72 | 132 | 0.0 | 0.0 | 0.00 | 0.00 | 0.00 | 89 | 1010.4 |
| 20260510044628 | 72 | 132 | 0.0 | 0.0 | 0.00 | 0.00 | 0.00 | 88 | 1010.4 |
| 20260510044027 | 72 | 132 | 0.0 | 0.0 | 0.00 | 0.00 | 0.00 | 88 | 1010.4 |
| 20260510043603 | 72 | 132 | 0.0 | 0.0 | 0.00 | 0.00 | 0.00 | 88 | 1010.5 |
| 20260510043002 | 72 | 132 | 0.0 | 0.0 | 0.00 | 0.00 | 0.00 | 87 | 1010.6 |
| 20260510042541 | 73 | 132 | 0.0 | 0.0 | 0.00 | 0.00 | 0.00 | 87 | 1010.6 |
| 20260510042019 | 73 | 132 | 0.0 | 0.0 | 0.00 | 0.00 | 0.00 | 87 | 1010.6 |
| 20260510041522 | 73 | 132 | 0.0 | 0.0 | 0.00 | 0.00 | 0.00 | 86 | 1010.6 |
| 20260510041100 | 73 | 132 | 0.0 | 0.0 | 0.00 | 0.00 | 0.00 | 86 | 1010.6 |
| 20260510040530 | 73 | 132 | 0.0 | 0.0 | 0.00 | 0.00 | 0.00 | 85 | 1010.6 |
| 20260510040035 | 74 | 132 | 0.0 | 0.0 | 0.00 | 0.00 | 0.00 | 85 | 1010.5 |
| 20260510035505 | 74 | 132 | 0.0 | 0.0 | 0.00 | 0.00 | 0.00 | 84 | 1010.5 |
| 20260510035044 | 74 | 132 | 0.0 | 0.0 | 0.00 | 0.00 | 0.00 | 84 | 1010.4 |
| 20260510034545 | 74 | 132 | 0.0 | 0.0 | 0.00 | 0.00 | 0.00 | 83 | 1010.3 |
| 20260510034022 | 75 | 132 | 0.0 | 0.0 | 0.00 | 0.00 | 0.00 | 83 | 1010.3 |
| 20260510033557 | 75 | 132 | 0.0 | 0.0 | 0.00 | 0.00 | 0.00 | 83 | 1010.3 |
| 20260510033103 | 75 | 132 | 0.0 | 0.0 | 0.00 | 0.00 | 0.00 | 83 | 1010.3 |
| 20260510032536 | 75 | 132 | 0.0 | 0.0 | 0.00 | 0.00 | 0.00 | 82 | 1010.2 |
| 20260510032012 | 76 | 132 | 0.0 | 0.0 | 0.00 | 0.00 | 0.00 | 82 | 1010.1 |
| 20260510031601 | 76 | 132 | 0.0 | 0.0 | 0.00 | 0.00 | 0.00 | 82 | 1010.2 |
| 20260510031033 | 76 | 132 | 1.0 | 0.0 | 0.00 | 0.00 | 0.00 | 82 | 1010.1 |
| 20260510030509 | 76 | 132 | 1.0 | 0.0 | 0.00 | 0.00 | 0.00 | 82 | 1010.0 |
| 20260510030011 | 75 | 132 | 1.0 | 0.0 | 0.00 | 0.00 | 0.00 | 82 | 1010.0 |
| 20260510025549 | 76 | 132 | 0.0 | 0.0 | 0.00 | 0.00 | 0.00 | 82 | 1009.9 |
| 20260510025019 | 76 | 132 | 0.0 | 0.0 | 0.00 | 0.00 | 0.00 | 81 | 1009.8 |
| 20260510024525 | 76 | 132 | 0.0 | 0.0 | 0.00 | 0.00 | 0.00 | 80 | 1009.7 |
| 20260510024101 | 77 | 132 | 0.0 | 0.0 | 0.00 | 0.00 | 0.00 | 80 | 1009.6 |
| 20260510023531 | 77 | 132 | 0.0 | 0.0 | 0.00 | 0.00 | 0.00 | 79 | 1009.5 |
| 20260510023035 | 77 | 132 | 0.0 | 0.0 | 0.00 | 0.00 | 0.00 | 78 | 1009.4 |
| 20260510022505 | 78 | 132 | 0.0 | 0.0 | 0.00 | 0.00 | 0.00 | 77 | 1009.3 |
| 20260510022042 | 78 | 132 | 0.0 | 0.0 | 0.00 | 0.00 | 0.00 | 76 | 1009.3 |
| 20260510021548 | 79 | 132 | 0.0 | 0.0 | 0.00 | 0.00 | 0.00 | 76 | 1009.2 |
| 20260510021020 | 79 | 132 | 0.0 | 0.0 | 0.00 | 0.00 | 0.00 | 75 | 1009.1 |
| 20260510020606 | 79 | 132 | 0.0 | 0.0 | 0.00 | 0.00 | 0.00 | 74 | 1009.0 |
| 20260510020007 | 80 | 132 | 0.0 | 0.0 | 0.00 | 0.00 | 0.00 | 74 | 1009.0 |
| 20260510015547 | 80 | 132 | 0.0 | 0.0 | 0.00 | 0.00 | 0.00 | 73 | 1008.9 |
| 20260510015020 | 81 | 132 | 0.0 | 0.0 | 0.00 | 0.00 | 0.00 | 72 | 1008.8 |
| 20260510014528 | 81 | 132 | 0.0 | 0.0 | 0.00 | 0.00 | 0.00 | 72 | 1008.7 |
| 20260510014002 | 81 | 132 | 1.0 | 0.0 | 0.00 | 0.00 | 0.00 | 70 | 1008.6 |
| 20260510013544 | 81 | 132 | 2.0 | 0.0 | 0.00 | 0.00 | 0.00 | 70 | 1008.6 |
| 20260510013043 | 82 | 132 | 2.0 | 0.0 | 0.00 | 0.00 | 0.00 | 69 | 1008.6 |
| 20260510012518 | 82 | 132 | 2.0 | 0.0 | 0.00 | 0.00 | 0.00 | 68 | 1008.5 |
| 20260510012055 | 82 | 130 | 2.0 | 0.0 | 0.00 | 0.00 | 0.00 | 68 | 1008.5 |
| 20260510011542 | 82 | 130 | 2.0 | 0.0 | 0.00 | 0.00 | 0.00 | 68 | 1008.5 |
| 20260510011017 | 83 | 130 | 2.0 | 0.0 | 0.00 | 0.00 | 0.00 | 68 | 1008.5 |
| 20260510010553 | 83 | 130 | 1.0 | 0.0 | 0.00 | 0.00 | 0.00 | 68 | 1008.5 |
| 20260510010136 | 84 | 130 | 1.0 | 0.0 | 0.00 | 0.00 | 0.00 | 67 | 1008.5 |
| 20260510005530 | 84 | 130 | 2.0 | 0.0 | 0.00 | 0.00 | 0.00 | 67 | 1008.4 |
| 20260510005005 | 85 | 130 | 2.0 | 0.0 | 0.00 | 0.00 | 0.00 | 66 | 1008.4 |
| 20260510004505 | 85 | 130 | 1.0 | 0.0 | 0.00 | 0.00 | 0.00 | 65 | 1008.3 |
| 20260510004044 | 86 | 130 | 1.0 | 0.0 | 0.00 | 0.00 | 0.00 | 64 | 1008.3 |
| 20260510003520 | 86 | 130 | 2.0 | 0.0 | 0.00 | 0.00 | 0.00 | 63 | 1008.2 |
| 20260510003024 | 87 | 130 | 2.0 | 0.0 | 0.00 | 0.00 | 0.00 | 62 | 1008.1 |
| 20260510002601 | 87 | 130 | 2.0 | 0.0 | 0.00 | 0.00 | 0.00 | 61 | 1008.1 |
| 20260510002029 | 88 | 130 | 2.0 | 0.0 | 0.00 | 0.00 | 0.00 | 61 | 1008.1 |
| 20260510001535 | 88 | 130 | 3.0 | 0.0 | 0.00 | 0.00 | 0.00 | 59 | 1008.1 |
| 20260510001008 | 89 | 130 | 2.0 | 0.0 | 0.00 | 0.00 | 0.00 | 57 | 1008.0 |
| 20260510000544 | 89 | 129 | 0.0 | 0.0 | 0.00 | 0.00 | 0.00 | 54 | 1008.0 |
| 20260510000056 | 89 | 129 | 1.0 | 0.0 | 0.00 | 0.00 | 0.00 | 54 | 1007.9 |
| 20260509235536 | 90 | 129 | 1.0 | 0.0 | 0.00 | 0.00 | 0.00 | 52 | 1007.9 |
| 20260509235008 | 90 | 129 | 1.0 | 0.0 | 0.00 | 0.00 | 0.00 | 52 | 1007.9 |
| 20260509234516 | 90 | 129 | 1.0 | 0.0 | 0.00 | 0.00 | 0.00 | 51 | 1007.8 |
| 20260509234051 | 91 | 129 | 1.0 | 0.0 | 0.00 | 0.00 | 0.00 | 52 | 1007.8 |
| 20260509233524 | 91 | 129 | 1.0 | 0.0 | 0.00 | 0.00 | 0.00 | 48 | 1007.7 |
| 20260509233031 | 91 | 129 | 0.0 | 0.0 | 0.00 | 0.00 | 0.00 | 50 | 1007.7 |
| 20260509232510 | 91 | 129 | 1.0 | 0.0 | 0.00 | 0.00 | 0.00 | 48 | 1007.7 |
| 20260509232040 | 91 | 129 | 1.0 | 0.0 | 0.00 | 0.00 | 0.00 | 47 | 1007.7 |
| 20260509231532 | 91 | 129 | 1.0 | 0.0 | 0.00 | 0.00 | 0.00 | 48 | 1007.7 |
| 20260509231004 | 91 | 129 | 1.0 | 0.0 | 0.00 | 0.00 | 0.00 | 46 | 1007.6 |
| 20260509230540 | 91 | 129 | 0.0 | 0.0 | 0.00 | 0.00 | 0.00 | 50 | 1007.7 |
| 20260509230029 | 91 | 129 | 1.0 | 0.0 | 0.00 | 0.00 | 0.00 | 49 | 1007.7 |
| 20260509225503 | 91 | 129 | 2.0 | 0.0 | 0.00 | 0.00 | 0.00 | 48 | 1007.7 |
| 20260509225045 | 91 | 129 | 1.0 | 0.0 | 0.00 | 0.00 | 0.00 | 48 | 1007.8 |
| 20260509224551 | 92 | 129 | 1.0 | 0.0 | 0.00 | 0.00 | 0.00 | 47 | 1007.7 |
| 20260509224030 | 92 | 129 | 1.0 | 0.0 | 0.00 | 0.00 | 0.00 | 50 | 1007.8 |
| 20260509223503 | 92 | 129 | 0.0 | 0.0 | 0.00 | 0.00 | 0.00 | 47 | 1007.8 |
| 20260509223006 | 92 | 129 | 1.0 | 0.0 | 0.00 | 0.00 | 0.00 | 49 | 1007.8 |
| 20260509222547 | 91 | 130 | 1.0 | 0.0 | 0.00 | 0.00 | 0.00 | 47 | 1007.7 |
| 20260509222023 | 91 | 129 | 1.0 | 0.0 | 0.00 | 0.00 | 0.00 | 50 | 1007.7 |
| 20260509221529 | 91 | 130 | 1.0 | 0.0 | 0.00 | 0.00 | 0.00 | 50 | 1007.6 |
| 20260509221106 | 91 | 125 | 2.0 | 0.0 | 0.00 | 0.00 | 0.00 | 51 | 1007.6 |
| 20260509220536 | 91 | 121 | 1.0 | 0.0 | 0.00 | 0.00 | 0.00 | 50 | 1007.7 |
| 20260509220035 | 91 | 121 | 1.0 | 0.0 | 0.00 | 0.00 | 0.00 | 48 | 1007.8 |
| 20260509215512 | 91 | 121 | 2.0 | 0.0 | 0.00 | 0.00 | 0.00 | 46 | 1007.9 |
| 20260509215055 | 91 | 107 | 1.0 | 0.0 | 0.00 | 0.00 | 0.00 | 50 | 1007.8 |
| 20260509214556 | 91 | 159 | 0.0 | 0.0 | 0.00 | 0.00 | 0.00 | 48 | 1007.9 |
| 20260509214033 | 91 | 130 | 1.0 | 0.0 | 0.00 | 0.00 | 0.00 | 48 | 1007.9 |
| 20260509213607 | 91 | 130 | 2.0 | 0.0 | 0.00 | 0.00 | 0.00 | 47 | 1008.0 |
| 20260509213055 | 91 | 130 | 2.0 | 0.0 | 0.00 | 0.00 | 0.00 | 46 | 1008.1 |
| 20260509212527 | 91 | 68 | 1.0 | 0.0 | 0.00 | 0.00 | 0.00 | 48 | 1008.1 |
| 20260509212008 | 91 | 68 | 1.0 | 0.0 | 0.00 | 0.00 | 0.00 | 49 | 1008.2 |
| 20260509211557 | 91 | 68 | 1.0 | 0.0 | 0.00 | 0.00 | 0.00 | 47 | 1008.2 |
| 20260509211029 | 92 | 68 | 1.0 | 0.0 | 0.00 | 0.00 | 0.00 | 46 | 1008.3 |
| 20260509210509 | 92 | 68 | 2.0 | 0.0 | 0.00 | 0.00 | 0.00 | 47 | 1008.4 |
| 20260509210009 | 92 | 68 | 1.0 | 0.0 | 0.00 | 0.00 | 0.00 | 47 | 1008.5 |
| 20260509205549 | 91 | 5 | 1.0 | 0.0 | 0.00 | 0.00 | 0.00 | 47 | 1008.5 |
| 20260509205026 | 91 | 5 | 1.0 | 0.0 | 0.00 | 0.00 | 0.00 | 48 | 1008.7 |